PEGASUS DEB

Satellite information

Favourite Embed

Satellite Type and Status

DEBRISIN ORBIT

Key statistics

Satellite PEGASUS DEB at a glance.

Uptime

11372

Days in orbit

Revolutions

≈ 14.4

Per day

Orbit

LEO

Low Earth Orbit

Inclination

81.8

Latest

Satellite identification and parameters

Extended collection of information and parameters for PEGASUS DEB.

Object identification

Identified? True

Debris? True

Object name: PEGASUS DEB

International designator: 1994-029AFS

Object number (NORAD): 39919

Object ID (CCSDS): 39919

Country: UNITED STATES OF AMERICA (US)

Current information (Y/N): Y

RCS size: SMALL

Orbital parameters

Period: 99.87 minutes

Inclination: 81.848 deg

SMA: 7130.444 km

Apoapsis: 937.999 km

Periapsis: 566.619 km

RAAN: 62.2834 deg

Eccentricy: 0.0260419

Argument of periapsis: 244.4626 deg

Mean anomaly: 112.9434 deg

Mean motion: 14.41876019 rev/day

Mean motion (dot): 0.0000117 rev/day2

B* drag term: 0.00023445 1/REarth

Two-line elements (TLE)

Creation date: July 6, 2025, 6:05 p.m.

Reference frame: TEME

Reference center: EARTH

Epoch: July 6, 2025, 8:56 a.m. UTC

TLE line 0: 0 PEGASUS DEB

TLE line 1: 1 39919U 94029AFS 25187.37275295 .00001170 00000-0 23445-3 0 9998

TLE line 2: 2 39919 81.8480 62.2834 0260419 244.4626 112.9434 14.41876019579935

Live tracking on map

Real-time ground track for satellite PEGASUS DEB.

In-orbit conjunctions

A list of the most updated potential collisions computed for object PEGASUS DEB.

Target Orbit TCA Probability of collision Miss distance Type
INTERCOSMOS 24 HEO 2025-04-06 16:30:34 0.0002245189 504.0 (m) PAYLOAD
CZ-4B DEB SSO 2024-06-11 05:52:19 0.0001726366 66.0 (m) DEBRIS

Associated space launch

PEGASUS DEB was lifted into orbit during the mission ‘Pegasus HAPS | Space Test Experiments Platform 2 (STEP-2)’, on board a Pegasus HAPS space rocket.

The launch took place on May 19, 1994, 5:03 p.m. from Edwards Air Force Base.

For more information about the launch, click the button.

Launch to space Pegasus HAPS | Space Test Experiments Platform 2 (STEP-2)
Pegasus HAPS | Space Test Experiments Platform 2 (STEP-2)

Agency: N/A

Status: Launch Successful

Launch date: May 19, 1994, 5:03 p.m. UTC

Rocket: Pegasus HAPS

Launch pad: Edwards Air Force Base

Location: Air launch to orbit

...

Latest news about this satellite

There are no fresh news available about this satellite. Check back as we update our databases every day.


Newsletter sign-up

Weekly statistics, charts and insights to help you stay on top of the space industry.